Saginaw, MI

2:48 PM EDT on September 26, 2017 (GMT -0400)
MBS International

Weather History for KMBS - February, 2014

Change the Weather History Date:

Thursday, February 27, 2014

  Actual Average Record
Temperature  
Mean Temperature 5 °F 28 °F  
Max Temperature 12 °F 35 °F 50 °F (1998)
Min Temperature -3 °F 20 °F -9 °F (2015)
Degree Days  
Heating Degree Days 60    
Month to date heating degree days 1318  
Since 1 July heating degree days 5532  
Cooling Degree Days 0    
Month to date cooling degree days 0  
Year to date cooling degree days 0  
Moisture  
Dew Point -3 °F    
Average Humidity 61    
Maximum Humidity 83    
Minimum Humidity 39    
Precipitation  
Precipitation 0.04 in 0.07 in 0.71 in (1997)
Month to date precipitation 1.78 1.54  
Year to date precipitation 3.68 3.25  
Snow  
Snow 0.70 in - - ()
Month to date snowfall 16.8  
Since 1 July snowfall 52.9  
Snow Depth 19.00 in    
Sea Level Pressure  
Sea Level Pressure 29.77 in    
Wind  
Wind Speed 13 mph (WNW)    
Max Wind Speed 31 mph    
Max Gust Speed 39 mph    
Visibility 7 miles    
Events Snow    
T = Trace of Precipitation, MM = Missing Value Source: NWS Daily Summary

Daily Weather History Graph

Daily Weather History Graph

Search for Another Location

Airport or City:

Trip Planner

Search our weather history database for the weather conditions in past years. The results will help you decide how hot, cold, wet, or windy it might be!

Date:

Astronomy

Feb. 27, 2014 Rise Set
Actual Time 7:16 AM EST 6:22 PM EST
Civil Twilight 6:47 AM EST 6:51 PM EST
Nautical Twilight 6:14 AM EST 7:24 PM EST
Astronomical Twilight 5:41 AM EST 7:57 PM EST
Moon 5:50 AM EST (2/27) 4:45 PM EST (2/27)
Length of Visible Light 12h 04m
Length of Day
11h 06m
Waning Crescent, 4% of the Moon is Illuminated
Feb 27
Waning Crescent
Mar 1
New
Mar 8
First Quarter
Mar 16
Full
Mar 23
Last Quarter

Hourly Weather History & Observations

Time (EST) Temp. Windchill Dew Point Humidity Pressure Visibility Wind Dir Wind Speed Gust Speed Precip Events Conditions
12:00 AM 10.4 °F -2.4 °F 6.8 °F 85% 29.53 in 3.0 mi SW 9.2 mph 18.4 mph 0.00 in Snow Light Snow
12:12 AM 10.4 °F -2.4 °F 6.8 °F 85% 29.52 in 2.0 mi SSW 9.2 mph - 0.00 in Snow Light Snow
12:24 AM 10.4 °F -2.4 °F 6.8 °F 85% 29.51 in 1.5 mi SSW 9.2 mph - 0.00 in Snow Light Snow
12:30 AM 12.2 °F -1.8 °F 6.8 °F 79% 29.51 in 3.0 mi SSW 11.5 mph - 0.00 in Snow Light Snow
12:41 AM 12.2 °F -1.8 °F 6.8 °F 79% 29.51 in 2.0 mi SSW 11.5 mph - 0.00 in Snow Light Snow
12:51 AM 12.2 °F -1.0 °F 6.8 °F 79% 29.50 in 4.0 mi SSW 10.4 mph - 0.00 in Snow Light Snow
12:53 AM 12.0 °F -1.3 °F 7.0 °F 80% 29.55 in 3.0 mi SSW 10.4 mph - 0.00 in Snow Light Snow
1:00 AM 12.2 °F -1.0 °F 6.8 °F 79% 29.50 in 3.0 mi SSW 10.4 mph - 0.00 in Snow Light Snow
1:23 AM 12.2 °F -1.0 °F 6.8 °F 79% 29.49 in 10.0 mi SSW 10.4 mph - 0.00 in   Overcast
1:53 AM 10.9 °F 0.2 °F 7.0 °F 84% 29.53 in 9.0 mi SSW 6.9 mph - 0.00 in   Overcast
2:53 AM 12.0 °F 2.7 °F 7.0 °F 80% 29.52 in 9.0 mi SW 5.8 mph - 0.00 in   Overcast
3:10 AM 10.4 °F -0.4 °F 6.8 °F 85% 29.47 in 8.0 mi SW 6.9 mph - N/A   Overcast
3:53 AM 10.0 °F 0.4 °F 5.0 °F 80% 29.52 in 10.0 mi West 5.8 mph - N/A   Overcast
4:53 AM 10.0 °F -2.9 °F 5.0 °F 80% 29.53 in 10.0 mi West 9.2 mph - N/A   Scattered Clouds
5:19 AM 12.2 °F -6.7 °F 6.8 °F 79% 29.51 in 1.5 mi NW 21.9 mph 32.2 mph 0.00 in Snow Light Snow
5:22 AM 10.4 °F -11.7 °F 5.0 °F 79% 29.52 in 0.8 mi NW 29.9 mph 36.8 mph 0.00 in Snow Light Snow
5:39 AM 8.6 °F -11.4 °F 1.4 °F 73% 29.54 in 1.0 mi NNW 21.9 mph 35.7 mph 0.00 in Snow Light Snow
5:45 AM 8.6 °F -10.5 °F 3.2 °F 79% 29.55 in 2.0 mi NNW 19.6 mph 25.3 mph 0.00 in Snow Light Snow
5:49 AM 8.6 °F -10.5 °F 1.4 °F 73% 29.55 in 4.0 mi NNW 19.6 mph 28.8 mph 0.00 in Snow Light Snow
5:53 AM 8.1 °F -11.2 °F 1.9 °F 76% 29.60 in 4.0 mi NNW 19.6 mph 28.8 mph 0.00 in Snow Blowing Snow
6:53 AM 5.0 °F -18.3 °F -7.1 °F 58% 29.66 in 4.0 mi NNW 27.6 mph 34.5 mph N/A Snow Blowing Snow
7:53 AM 3.9 °F -15.6 °F -9.0 °F 55% 29.74 in 10.0 mi NW 17.3 mph - N/A   Mostly Cloudy
8:53 AM 3.9 °F -17.6 °F -5.1 °F 66% 29.81 in 3.0 mi NNW 21.9 mph 32.2 mph N/A Snow Blowing Snow
9:05 AM 3.2 °F -19.0 °F -5.8 °F 66% 29.77 in 2.0 mi NW 23.0 mph 35.7 mph 0.00 in Snow Blowing Snow
9:20 AM 3.2 °F -17.1 °F -9.4 °F 56% 29.78 in 7.0 mi NW 18.4 mph 27.6 mph 0.00 in   Mostly Cloudy
9:53 AM 5.0 °F -17.1 °F -11.9 °F 46% 29.86 in 10.0 mi NW 24.2 mph 33.4 mph 0.00 in   Mostly Cloudy
10:53 AM 6.1 °F -16.1 °F -14.1 °F 39% 29.90 in 10.0 mi NW 25.3 mph 36.8 mph N/A   Partly Cloudy
11:53 AM 7.0 °F -13.1 °F -11.0 °F 44% 29.95 in 10.0 mi WNW 20.7 mph 25.3 mph N/A   Scattered Clouds
12:53 PM 7.0 °F -11.6 °F -11.9 °F 42% 29.98 in 10.0 mi NW 17.3 mph 25.3 mph N/A   Partly Cloudy
1:53 PM 7.0 °F -12.1 °F -13.0 °F 40% 30.00 in 10.0 mi NW 18.4 mph 25.3 mph N/A   Scattered Clouds
2:53 PM 8.1 °F -8.4 °F -11.9 °F 40% 30.04 in 10.0 mi NW 13.8 mph 24.2 mph N/A   Scattered Clouds
3:53 PM 7.0 °F -12.6 °F -13.0 °F 40% 30.07 in 10.0 mi WNW 19.6 mph - N/A   Scattered Clouds
4:53 PM 7.0 °F -11.0 °F -11.9 °F 42% 30.11 in 10.0 mi NW 16.1 mph - N/A   Partly Cloudy
5:53 PM 6.1 °F -10.2 °F -14.1 °F 39% 30.14 in 10.0 mi NW 12.7 mph - N/A   Clear
6:53 PM 3.0 °F -10.5 °F -14.1 °F 45% 30.17 in 10.0 mi NNW 8.1 mph - N/A   Clear
7:53 PM 1.9 °F -9.2 °F -15.0 °F 45% 30.20 in 10.0 mi NNW 5.8 mph - N/A   Clear
8:53 PM -0.0 °F -13.0 °F -15.0 °F 49% 30.22 in 10.0 mi NNW 6.9 mph - N/A   Clear
9:53 PM -0.0 °F -9.9 °F -15.0 °F 49% 30.25 in 10.0 mi North 4.6 mph - N/A   Clear
10:53 PM -2.0 °F - -16.1 °F 51% 30.25 in 10.0 mi Calm Calm - N/A   Clear
11:53 PM -2.9 °F - -15.0 °F 56% 30.27 in 10.0 mi Calm Calm - N/A   Clear